Location: Unspecified
(0.0000°N, 0.0000°E)
Time: 21:19:57
(UTC+02:00)

Cosmos 773 Rocket - Visible Passes

Search period start: 18 April 2015 00:00
Search period end: 28 April 2015 00:00
Orbit: 745 x 778 km, 74.1° (Epoch: 18 April)

Date Brightness Start Highest point End Pass type
(mag) Time Alt. Az. Time Alt. Az. Time Alt. Az.
18 Apr 5.0 22:01:10 10° SSW 22:06:09 44° WNW 22:11:06 10° N visible
19 Apr 3.9 21:22:04 10° S 21:27:18 84° ESE 21:32:35 10° NNE visible
20 Apr 4.4 20:43:39 10° S 20:48:28 38° ESE 20:53:21 10° NE visible
20 Apr 7.1 22:28:15 10° W 22:30:22 12° WNW 22:32:03 10° NW visible
21 Apr 6.1 21:46:59 10° SW 21:51:22 26° WNW 21:55:39 10° NNW visible
22 Apr 4.7 21:07:21 10° SSW 21:12:29 57° WNW 21:17:39 10° N visible
23 Apr 4.0 20:28:28 10° S 20:33:40 66° ESE 20:38:54 10° NNE visible
24 Apr 7.0 21:33:26 10° WSW 21:36:39 16° WNW 21:39:33 10° NW visible
25 Apr 5.9 20:52:57 10° SW 20:57:42 33° WNW 21:02:22 10° NNW visible
26 Apr 4.4 20:13:35 10° SSW 20:18:50 73° WNW 20:24:05 10° N visible
27 Apr 7.2 07:05:15 10° NE 07:08:31 18° ENE 07:12:02 10° ESE visible
